Location: Tel Aviv
(32.0670°N, 34.7670°E)
Time: 07:09:10
(UTC+03:00)

NOAA 19 - Visible Passes

Search period start: 29 March 2023 00:00
Search period end: 08 April 2023 00:00
Orbit: 839 x 861 km, 99.1° (Epoch: 28 March)

Date Brightness Start Highest point End Pass type
(mag) Time Alt. Az. Time Alt. Az. Time Alt. Az.
29 Mar 5.2 20:19:45 21° SE 20:23:16 57° ENE 20:28:37 10° N visible
29 Mar 7.7 22:01:43 11° WSW 22:04:10 14° W 22:07:03 10° WNW visible
30 Mar 5.6 20:07:32 18° SE 20:11:19 43° ENE 20:16:28 10° N visible
30 Mar 7.4 21:49:31 14° SW 21:52:04 19° W 21:55:54 10° NW visible
31 Mar 5.9 19:55:18 14° SE 19:59:23 33° ENE 20:04:13 10° N visible
31 Mar 7.1 21:37:17 18° SW 21:39:58 25° W 21:44:26 10° NW visible
01 Apr 6.2 19:43:05 10° ESE 19:47:28 26° ENE 19:51:52 10° NNE visible
01 Apr 6.6 21:25:04 21° SSW 21:27:53 33° W 21:32:48 10° NW visible
02 Apr 6.5 19:31:44 10° ESE 19:35:34 20° ENE 19:39:23 10° NNE visible
02 Apr 6.1 21:12:51 23° SSW 21:15:49 44° W 21:21:02 10° NNW visible
03 Apr 6.8 19:20:41 10° E 19:23:42 15° ENE 19:26:41 10° NNE visible
03 Apr 5.6 21:00:37 25° S 21:03:47 59° WSW 21:09:10 10° NNW visible
04 Apr 5.2 20:48:24 24° S 20:51:45 78° WSW 20:57:14 10° NNW visible
05 Apr 5.1 20:36:11 23° SSE 20:39:45 81° ENE 20:45:13 10° N visible
06 Apr 5.2 20:23:57 20° SSE 20:27:45 62° ENE 20:33:08 10° N visible
06 Apr 7.8 22:06:16 10° WSW 22:08:42 13° W 22:11:09 10° WNW visible
07 Apr 5.5 20:11:44 16° SE 20:15:47 47° ENE 20:20:59 10° N visible
07 Apr 7.5 21:53:43 12° SW 21:56:34 18° W 22:00:09 10° NW visible
